Volver al catálogo

STARLINK-31696

ActivoComunicacionesVLEO
NORAD 59435·PAYLOAD·🇺🇸 United States

Lanzado Apr 7, 2024 desde Vandenberg Space Force Base

Loading…

Próximos Pases (próximas 24 horas)

TLE

ActualizadoSource: CelesTrak SupGP

Época: Sep 14, 2026, 21:03 UTC

1 59435C 24065Q   26257.87756944 -.00047019  00000+0 -13893-2 0  2570
2 59435  53.1563 119.8482 0001289  86.3790  77.8550 15.34411858    10

Sigue STARLINK-31696 en tiempo real con AllMySat

Download on the App Store